Regional Weather Roundup
Issued by NWS

Home | Current Version | Previous Version | Graphics & Text | Print | Product List | Glossary On
Versions: 1 2 3 4 5 6 7 8 9 10 11 12 13 14 15 16 17 18 19 20 21 22 23 24 25 26 27 28 29 30 31 32 33 34 35 36 37 38 39 40 41 42 43 44 45 46 47 48 49 50
000
ASUS43 KLSX 252159
RWRMO

WEATHER SUMMARY FOR MISSOURI
NATIONAL WEATHER SERVICE SPRINGFIELD MO
500 PM CDT SAT OCT 25 2014

NOTE: "FAIR" INDICATES FEW OR NO CLOUDS BELOW 12,000 FEET WITH NO
       SIGNIFICANT WEATHER AND/OR OBSTRUCTIONS TO VISIBILITY.
       CURRENT SKY AND/OR WEATHER CONDITIONS ARE NOT AVAILABLE FOR
       CHILLICOTHE AND FARMINGTON.

MOZ001>031-035>038-043-044-053-054-252300-
...NORTHERN AND WESTERN MISSOURI...

CITY           SKY/WX    TMP DP  RH WIND       PRES   REMARKS
KANSAS CTY INT SUNNY     78  57  48 SE6       30.02F
KANSAS C DTWN  SUNNY     81  56  42 E5        30.00F
LEE`S SUMMIT   SUNNY     80  58  46 MISG      30.02F
ST JOSEPH      SUNNY     79  47  32 CALM      30.02F
CHILLICOTHE      N/A     80  48  32 NE3       30.04R
KIRKSVILLE     SUNNY     74  53  48 N7        30.05S

$$
MOZ066>068-077>081-088>096-101>105-252300-
...SOUTHWEST MISSOURI...

CITY           SKY/WX    TMP DP  RH WIND       PRES   REMARKS
SPRINGFIELD    SUNNY     82  60  47 NW3       30.04R
JOPLIN         SUNNY     82  64  54 CALM      30.03F

$$
MOZ032>034-039>042-045>050-055>058-069>072-252300-
...CENTRAL MISSOURI...

CITY           SKY/WX    TMP DP  RH WIND       PRES   REMARKS
COLUMBIA       SUNNY     79  59  50 CALM      30.02S
JEFFERSON CITY SUNNY     81  55  40 W3        30.01R
ROLLA          SUNNY     79  59  50 CALM      30.03R
SEDALIA        SUNNY     81  60  48 CALM      30.03F
OSAGE BEACH    SUNNY     81  61  50 SW5       30.02F

$$
MOZ051-052-059>065-252300-
...EAST CENTRAL MISSOURI...

CITY           SKY/WX    TMP DP  RH WIND       PRES   REMARKS
ST LOUIS INTL  SUNNY     81  55  40 NW3       30.01S
SPIRIT OF STL  SUNNY     80  53  39 N3        30.00S
ST CHARLES     SUNNY     79  48  33 N6        29.99F

$$
MOZ072>076-082>087-097>100-106>115-252300-
...SOUTH CENTRAL AND SOUTHEAST MISSOURI...

CITY           SKY/WX    TMP DP  RH WIND       PRES   REMARKS
CAPE GIRARDEAU SUNNY     82  59  45 CALM      29.99S
FARMINGTON     SUNNY     79  57  47 CALM      30.04S
POPLAR BLUFF   SUNNY     82  63  52 S6        29.99S HAZE
WEST PLAINS    SUNNY     82  60  47 W5        30.04S

$$



USA.gov is the U.S. government's official web portal to all federal, state and local government web resources and services.